Hourly Data Report for April 19, 2004

SHERBROOKE A
QUEBEC

45°26'00.000" N
71°41'00.000" W
241.40 m
7028124
71610
YSC

Download Data

Hourly Data (April 2004)
Hourly Data Report for April 19, 2004
TIME
LST
Temp Definition
°C
Dew Point Definition
°C
Rel Hum Definition
%
Precip. Amount Definition
mm

Wind Dir Definition
10's deg

Wind Spd Definition
km/h
Visibility Definition
km
Stn Press Definition
kPa
Hmdx Definition


Wind Chill Definition


Weather Definition


00:00 9.9 6.4 79   18 13 15.0 98.73      
01:00 11.2 6.0 70   17 13 15.0 98.72      
02:00 12.2 6.4 68   20 19 15.0 98.61      
03:00 12.9 6.6 66   18 13 15.0 98.53      
04:00 12.9 6.7 66   20 17 15.0 98.42      
05:00 14.2 7.1 62   20 11 15.0 98.28      
06:00 14.8 7.4 61   20 11 15.0 98.23      
07:00 15.5 7.5 59   21 17 24.1 98.13     Mostly Cloudy
08:00 17.0 7.9 55   22 19 24.1 98.03     Mostly Cloudy
09:00 20.2 8.8 48   22 24 24.1 97.94     Mostly Cloudy
10:00 21.1 8.5 44   21 28 24.1 97.89     Mostly Cloudy
11:00 22.2 8.5 41   22 20 24.1 97.75     Mostly Cloudy
12:00 22.6 8.2 40   21 26 24.1 97.63     Mostly Cloudy
13:00 22.9 7.3 37   22 26 24.1 97.62     Cloudy
14:00 24.5 7.1 33   21 26 24.1 97.49 25   Mostly Cloudy
15:00 23.6 6.7 34   24 26 24.1 97.46     Cloudy
16:00 19.8 10.8 56   27 15 24.1 97.39     Rain Showers
17:00 18.7 10.5 59   26 11 15.0 97.34      
18:00 18.8 9.7 55   23 17 15.0 97.34      
19:00 20.2 10.1 52   23 20 15.0 97.23      
20:00 17.4 11.3 67   24 24 15.0 97.30     Rain
21:00 14.4 11.5 83   23 26 15.0 97.28     Rain
22:00 14.9 11.1 78   26 30 15.0 97.25      
23:00 11.4 9.4 87   30 32 15.0 97.53     Rain

Notes on Data Quality.

Legend

  • E = Estimated
  • M = Missing
  • NA = Not Available*
  • [empty] = Indicates an unobserved value
Date modified: